Location: Bun Machan
(52.1403°N, 7.3744°W)
Time: 02:46:02
(UTC+00:00)

Cosmos 1269 Rocket - Pass Details

Date: 14 July 2020
Orbit: 773 x 778 km, 74.1° (Epoch: 04 August)

Event Time Altitude Azimuth Distance (km) Brightness Sun altitude
Exits shadow 00:07:31 26° 180° (S) 1,488 4.9 -16.0°
Maximum altitude 00:10:24 60° 109° (ESE) 885 4.2 -16.0°
Drops below altitude 10° 00:15:36 10° 31° (NNE) 2,332 7.3 -16.1°
Sets 00:18:01 0° 28° (NNE) 3,263 8.3 -16.1°
